map of STX home
Great Circle Mapper logo
STX - Airport
Location
City:  Christiansted, Virgin Islands, United States
Name:Henry E Rohlsen Airport
ICAO / IATA:TISX / STX
FAA:STX

Details
Type:Airport (Part 139 Class I)
Use:Public/Civil, International (customs landing rights)
Latitude:1742'06"N (17.701556)
Longitude:6448'06"W (-64.801721)
Datum:WGS 1984
Elevation:74 ft (23 m)
Runways:1
Longest:10004 × 150 ft (3049 × 45.5 m), paved

Time
Time Zone:UTC-4
Local Time:

Weather
METAR:TISX 240153Z 06010KT 10SM SCT021 28/24 A3006 RMK AO2 SLP177 T02780239
TAF:TISX 232331Z 2400/2424 06012KT P6SM SCT030
FM240100 08010KT P6SM FEW030
FM241400 11016G25KT P6SM VCSH SCT030 SCT050
FM242300 09010KT P6SM VCSH SCT030 SCT050

Related Locations
Nearby:
Farthest:BWB: 12212 mi / 19653 km
Barrow Island, WA, AU

Find:

   beyond  
but within

Other Information
Maps:
NOTAMs:
Links:
Sources:

  
flag of United States
flag of Virgin Islands
  

Airport Diagram

Airport diagram for STX

Airport diagram PDF

Sectional Chart

Flight Planning
at skyvector.com

Satellite Image

Google Maps Satellite View

 

Copyright © 2004-2014 Karl L. Swartz. All rights reserved.
The Great Circle Mapper name and logo are trademarks of the Great Circle Mapper.
All other trademarks mentioned herein belong to their respective owners.
Please see credits for attibutions and further copyright information.

  Follow gcmap on Facebook Follow gcmap on Twitter

hCard Microformat

Geo Microformat